Theta_e
329 329 323 318 316 315 320 321 319 324 335 332 335 338 340 338 341 336 334 334 334 333 331 331 334 330 329 328 326 323 323 323 323 323 323 322 321 321 321 321 321 321 322 323 324 324 323 322 321
327 323 320 315 317 317 317 320 326 326 333 327 331 335 336 340 336 334 334 333 333 332 331 334 333 329 328 327 324 319 322 321 321 321 321 321 320 320 320 320 320 321 323 323 324 323 321 321 320
326 324 319 319 316 316 320 323 323 321 322 324 333 332 337 341 337 336 335 334 332 332 332 334 331 329 327 327 321 315 319 316 318 319 319 319 318 318 319 320 320 321 322 323 322 321 321 320 321
326 325 319 320 316 315 320 321 320 322 322 330 333 336 335 337 337 336 334 333 333 333 334 333 330 328 327 325 316 312 314 313 317 318 317 317 317 318 318 319 320 320 321 321 322 321 321 320 321
327 323 328 327 319 315 314 315 317 321 330 331 331 336 338 336 336 335 334 334 333 334 333 331 328 327 324 319 312 311 312 317 317 316 316 316 316 316 317 319 319 320 320 321 322 321 321 321 321
328 324 328 329 318 315 314 315 319 327 327 327 332 333 338 336 335 334 333 333 334 334 331 329 327 324 316 315 311 312 314 317 316 315 311 312 315 315 316 318 320 320 320 321 321 321 321 321 321
331 330 326 328 316 316 315 314 320 324 326 330 329 336 337 336 334 334 334 334 333 331 329 325 322 317 313 312 313 314 314 312 312 313 314 313 315 315 315 316 318 320 320 321 320 320 321 320 319
319 326 326 326 317 316 313 317 320 327 328 323 324 334 341 334 332 333 332 331 330 327 325 322 318 316 314 313 315 315 314 311 312 313 314 314 315 315 315 315 315 317 319 320 320 318 318 317 317
319 328 327 324 315 314 313 322 325 324 325 324 323 325 328 331 331 331 329 327 326 325 322 321 320 316 314 314 315 315 314 311 313 314 314 314 314 314 315 314 314 316 316 317 318 317 318 316 315
324 328 329 316 313 314 314 315 317 325 328 330 329 323 330 331 330 329 328 326 325 324 322 320 319 315 314 315 315 314 313 312 313 314 314 313 313 312 313 313 314 315 315 316 317 317 317 317 315
321 325 313 314 314 313 315 316 315 321 324 324 331 324 323 326 328 329 329 328 327 324 321 319 316 314 315 315 314 313 312 312 312 313 312 311 311 312 312 312 312 313 315 316 316 316 317 317 315
319 315 314 314 312 313 314 315 316 315 316 318 322 322 320 321 323 324 326 328 326 324 320 317 315 314 315 315 314 312 312 312 312 311 311 311 311 311 311 311 312 312 313 315 316 316 317 316 315
317 315 312 312 312 313 314 315 316 316 315 316 319 320 319 318 318 323 325 327 325 321 318 316 315 314 315 315 313 312 312 312 311 310 310 311 311 310 310 311 311 312 312 314 315 316 317 315 315
316 314 313 312 313 313 315 315 315 315 315 316 317 317 316 317 316 317 321 325 325 320 317 315 315 315 315 313 311 312 312 312 310 310 310 310 310 310 310 311 311 311 312 313 313 315 316 316 315
317 317 315 314 313 314 312 314 313 313 315 317 314 313 313 314 315 316 319 323 323 318 316 314 315 315 314 312 312 312 312 311 310 310 310 310 310 310 311 311 311 311 312 313 312 314 316 316 315
319 318 323 317 313 313 314 318 313 313 314 315 312 311 311 310 312 313 315 317 319 316 314 314 315 314 313 312 312 312 312 310 310 309 309 310 310 311 311 311 311 310 311 312 312 312 314 314 314
321 326 322 319 314 312 314 318 313 311 314 315 312 311 310 309 310 311 312 312 314 317 313 314 314 314 313 312 312 312 310 309 309 308 309 309 309 310 310 310 309 309 310 312 311 310 313 314 311
324 324 320 322 319 313 313 313 313 311 311 312 312 311 310 310 310 310 310 311 312 314 313 313 314 313 313 312 311 311 309 308 308 308 308 308 308 308 308 308 308 308 309 310 310 308 312 314 312
321 323 322 320 319 316 316 316 314 311 310 311 311 311 311 311 309 310 309 310 310 311 312 312 314 313 312 311 311 310 309 308 307 307 306 307 306 307 307 307 307 307 306 307 308 307 309 312 311
322 324 323 320 316 317 318 319 317 313 312 311 311 312 312 310 307 308 308 308 309 310 310 311 313 313 313 312 312 311 309 307 306 305 304 305 305 306 306 306 306 305 305 306 306 306 305 307 310
317 321 319 321 317 315 315 315 315 314 314 311 311 311 312 312 309 307 307 307 308 308 309 311 312 312 313 312 311 310 308 307 305 302 302 302 303 304 304 304 304 304 303 303 303 305 304 301 298
317 315 315 320 317 317 315 316 314 315 314 313 312 311 312 311 309 307 306 306 307 308 308 309 310 311 311 311 312 310 309 306 305 302 300 300 300 301 302 302 302 303 302 302 299 301 303 301 296
316 313 314 315 317 317 316 316 315 313 316 315 313 311 310 310 308 307 307 306 307 307 307 307 308 309 310 310 310 309 308 307 305 302 299 298 298 298 298 299 299 299 298 298 295 295 297 299 297
313 313 313 312 313 310 314 314 313 313 316 316 314 310 309 309 307 307 307 306 306 306 305 305 306 307 308 309 309 309 308 307 303 300 298 296 295 295 295 296 297 296 295 294 292 291 290 289 290
313 312 313 311 311 316 313 317 314 313 312 313 313 311 307 308 307 305 303 303 303 304 304 304 304 305 306 307 308 308 308 307 305 301 298 296 294 293 293 293 294 292 290 289 289 289 288 288 287
312 312 313 315 317 317 314 318 316 311 309 309 308 308 307 306 306 305 304 303 302 303 303 303 303 303 303 304 305 306 306 305 303 301 298 295 293 292 292 292 292 290 288 287 288 288 287 286 285
313 313 311 314 308 313 312 310 308 308 308 307 307 309 307 306 305 304 302 301 301 302 302 302 302 301 301 302 303 303 303 303 301 299 297 295 292 290 289 289 290 290 288 286 287 286 285 285 284
312 311 315 312 312 315 312 311 313 310 312 309 306 305 305 304 302 299 299 299 301 302 302 301 301 300 299 299 299 300 300 299 299 297 295 292 289 288 287 287 287 287 287 285 285 284 284 284 283
312 312 312 311 311 316 315 312 306 309 307 308 305 304 304 302 300 298 297 299 301 301 301 300 299 298 297 296 296 297 297 297 297 296 292 288 287 286 286 286 286 285 285 284 284 283 283 283 283
309 311 312 314 313 310 312 313 308 305 306 305 304 303 303 301 298 297 297 297 298 299 299 299 297 297 296 295 294 294 294 294 293 293 291 289 286 285 285 285 285 285 284 283 283 283 283 282 282
Wind_Speed
10 9 7 4 4 5 1 1 1 1 6 6 10 16 11 5 3 5 5 22 25 21 16 12 14 12 11 10 10 10 11 12 13 12 12 12 12 12 13 13 14 14 14 14 15 16 16 15 14
7 8 4 2 4 4 4 6 5 3 8 8 9 5 8 8 4 10 13 27 23 20 15 16 13 11 11 10 9 10 11 12 13 13 12 12 12 12 13 13 14 13 14 15 16 16 17 17 16
4 6 3 4 3 4 3 3 4 4 5 3 5 7 4 2 4 5 18 23 21 16 15 15 12 11 10 9 8 9 10 11 12 12 12 12 12 12 13 13 13 14 14 15 15 16 17 17 17
3 6 4 3 7 3 5 2 2 4 6 9 6 8 4 4 2 13 23 24 20 19 17 14 11 9 9 8 8 9 9 11 11 13 14 13 12 12 12 13 13 14 15 15 16 16 16 17 17
7 3 4 4 2 4 3 3 1 5 5 6 2 4 4 8 24 26 25 20 20 20 17 14 10 9 8 8 8 8 10 11 11 12 14 13 13 12 12 12 13 13 14 15 16 15 16 16 17
4 3 4 3 3 4 2 5 5 6 4 4 7 5 3 12 20 20 22 21 21 19 16 12 9 7 8 8 8 9 11 11 12 12 15 14 13 14 14 12 13 13 14 14 16 16 17 17 18
4 3 3 4 6 3 2 2 5 4 3 5 4 6 4 12 19 21 21 21 19 16 13 10 9 9 9 9 10 11 13 13 12 13 15 15 14 14 14 13 12 13 15 14 15 16 17 18 18
3 3 3 2 4 4 4 3 2 5 4 2 4 6 8 8 23 23 22 21 17 14 11 10 9 9 8 9 10 10 12 13 12 12 13 11 9 9 9 12 13 13 14 14 15 15 16 19 19
1 4 2 4 4 5 3 3 3 3 7 3 4 3 5 23 26 25 23 20 16 13 10 8 6 5 8 8 8 7 10 11 11 10 10 10 10 11 10 10 11 13 15 14 14 15 15 20 23
4 3 2 2 2 3 3 4 3 4 3 5 5 7 11 20 18 20 16 17 14 14 12 8 5 5 6 6 6 6 8 9 9 9 9 9 10 9 9 9 11 10 13 13 14 14 14 17 21
3 3 4 2 2 1 3 3 2 7 3 3 12 5 6 16 15 15 14 18 17 14 13 8 8 7 7 6 5 6 7 8 9 9 10 10 13 13 10 10 11 10 13 12 13 13 14 16 21
5 5 4 1 3 1 3 5 4 2 2 6 8 8 6 10 11 13 13 19 18 16 13 10 8 9 8 6 5 6 7 7 10 11 12 13 15 15 13 12 11 10 13 11 13 13 14 18 22
5 2 5 4 6 4 5 3 5 3 5 7 8 7 7 8 9 11 12 14 17 16 13 11 10 9 8 5 5 7 7 8 10 11 12 12 12 12 12 11 11 11 12 12 12 14 16 19 21
3 5 4 4 3 3 3 2 1 4 6 7 6 7 7 8 9 11 11 12 17 14 15 12 11 10 8 6 7 7 7 8 9 10 10 10 10 10 10 10 9 10 10 11 11 12 15 18 19
3 5 3 2 1 1 3 1 5 7 8 8 7 6 6 7 12 11 15 15 17 15 16 15 13 11 10 8 9 7 9 7 8 8 6 7 7 7 7 6 7 7 7 6 9 10 15 16 19
3 4 2 2 3 2 2 5 3 8 10 9 8 7 6 6 10 11 14 14 15 16 16 16 15 13 10 10 10 10 9 7 6 5 4 4 4 5 4 5 5 5 5 6 10 10 15 17 21
4 2 3 4 6 3 4 5 4 7 7 9 9 8 8 7 11 13 13 13 14 16 16 14 16 14 12 12 11 11 8 5 6 4 4 3 2 3 3 5 5 5 5 7 8 10 14 21 23
5 3 3 4 3 4 3 8 3 7 8 9 9 8 8 9 13 18 15 14 12 15 17 16 16 15 14 15 13 11 7 5 4 3 3 2 3 3 4 4 5 5 7 9 7 8 14 21 21
4 3 3 3 1 3 6 7 7 8 7 9 9 10 12 13 11 17 15 13 13 15 16 16 18 17 18 20 17 13 11 6 4 3 2 2 2 3 4 5 4 5 8 9 9 10 14 21 24
3 2 1 1 2 3 6 10 11 10 12 14 15 16 16 9 7 16 19 17 16 16 17 17 16 18 18 18 16 10 13 7 5 4 3 2 2 3 5 5 6 6 7 9 10 11 15 15 15
1 2 3 2 1 2 5 8 6 7 15 13 16 15 17 17 16 13 19 22 18 18 17 17 18 17 17 15 17 11 11 9 7 4 3 3 3 4 5 6 5 6 6 9 9 10 11 11 12
1 4 2 4 2 3 2 5 6 4 7 11 16 15 14 14 12 13 18 21 24 21 18 16 17 17 14 16 15 17 15 13 10 8 5 4 4 4 5 5 6 7 7 7 9 9 11 14 14
5 1 1 2 3 1 3 0 7 4 6 8 12 14 12 14 15 14 20 23 26 23 21 18 17 16 15 15 16 17 15 15 12 11 8 5 4 5 6 6 7 9 10 10 10 11 13 12 11
2 3 5 4 2 2 4 5 5 4 5 3 4 9 10 11 13 14 19 24 27 24 21 18 17 17 17 17 18 19 19 18 16 15 11 8 7 7 7 8 8 9 10 11 12 13 15 18 17
2 5 3 4 2 5 1 3 8 7 9 7 7 8 10 9 12 12 15 22 26 27 23 21 20 19 19 20 20 21 20 20 19 20 16 13 11 11 10 10 11 12 12 13 13 13 15 16 18
6 7 4 4 2 4 2 6 6 5 5 4 5 5 6 8 11 14 19 21 24 28 26 24 23 21 20 20 20 20 20 19 20 21 17 15 14 13 13 14 13 14 14 14 14 15 15 15 17
4 4 5 2 1 1 4 7 9 5 6 5 7 3 6 7 10 12 15 21 26 29 29 27 24 22 21 21 20 20 21 21 21 20 18 17 16 16 16 17 16 15 15 14 14 15 16 15 16
6 4 1 1 3 5 5 5 7 5 4 3 7 8 6 6 6 7 13 19 26 29 28 25 24 24 23 21 21 22 21 22 21 21 20 19 19 19 19 19 18 17 16 15 15 16 17 17 16
2 3 3 4 5 4 3 5 6 6 7 5 8 8 9 8 9 9 14 24 30 30 29 28 27 26 24 23 23 23 23 23 23 22 20 20 19 19 19 19 19 18 17 15 16 17 17 17 17
3 9 8 5 5 4 3 12 3 8 6 6 8 9 6 6 8 8 15 22 26 29 30 30 29 28 26 24 24 24 24 24 25 25 25 24 23 20 19 19 18 18 17 17 17 17 17 17 17
Wind_Direction
334 333 347 23 66 67 326 106 25 92 62 351 84 91 96 57 26 128 174 163 139 138 149 145 133 112 97 74 73 71 69 64 55 45 41 42 42 45 49 50 49 44 44 44 37 32 28 25 25
346 8 42 75 90 78 287 328 98 110 140 161 72 61 51 67 60 111 113 144 144 140 142 139 131 112 90 64 63 66 65 61 58 50 42 39 43 46 49 54 52 51 48 44 41 33 31 32 34
11 18 77 97 109 133 146 280 157 106 153 105 101 57 63 47 59 115 143 144 139 140 140 135 133 111 77 52 63 63 63 55 55 56 51 46 44 50 55 53 56 56 50 44 39 39 36 38 36
29 27 38 78 96 9 157 244 241 110 56 51 96 70 76 1 47 125 140 146 138 139 138 139 129 110 76 53 61 60 56 53 55 62 56 52 50 51 55 56 54 53 47 43 41 39 37 42 43
56 57 62 86 90 111 28 282 20 71 75 25 30 99 82 64 117 132 140 140 136 133 132 132 122 98 82 60 59 57 55 55 64 67 62 56 48 52 52 58 55 48 47 44 37 39 43 44 42
57 89 79 131 152 115 28 348 91 71 76 92 65 98 85 122 121 126 135 138 138 138 133 125 108 90 87 69 66 59 62 59 54 58 62 65 58 58 61 59 52 43 37 40 38 43 51 49 48
89 73 159 152 147 79 118 333 61 80 91 36 137 105 104 97 132 132 128 131 129 127 124 113 97 90 80 76 71 64 58 48 59 62 64 67 64 60 58 56 45 43 42 41 45 50 57 56 57
93 93 106 248 158 106 338 57 104 56 55 329 4 161 150 131 133 129 127 125 121 117 112 107 85 71 77 80 74 62 53 49 63 68 64 63 63 53 50 53 51 51 43 49 50 56 65 60 59
72 68 143 192 147 125 21 102 36 61 85 46 23 68 95 135 138 130 127 124 122 120 124 116 85 82 83 83 77 63 53 53 70 72 68 58 56 56 61 55 53 65 55 59 58 60 72 66 65
75 92 173 315 33 106 76 99 98 82 72 68 88 59 126 134 136 130 138 128 131 128 133 132 125 120 101 99 85 71 54 59 66 64 58 52 43 52 63 58 49 67 57 65 64 65 79 71 70
29 127 160 10 44 51 97 61 46 120 49 191 158 146 110 124 133 135 143 141 147 144 147 149 141 135 141 121 94 81 69 64 62 57 53 56 64 60 58 55 44 50 54 67 69 66 80 79 80
105 50 124 116 352 58 96 109 72 32 155 142 136 144 118 120 135 138 138 147 151 154 154 151 147 145 138 130 109 91 80 67 54 64 68 66 57 56 48 43 36 43 43 53 61 73 93 92 87
78 125 58 87 76 52 93 54 140 116 128 118 130 135 129 126 132 145 157 153 156 154 157 157 154 154 152 141 119 104 95 74 65 66 63 59 55 54 54 49 39 46 47 52 59 81 107 101 92
96 89 115 63 62 48 103 143 336 219 146 142 142 135 127 142 151 147 165 158 167 161 163 163 163 162 165 146 130 118 112 88 79 73 65 59 61 55 50 47 45 42 51 59 61 81 116 113 98
89 81 48 46 348 117 134 252 231 166 155 156 143 137 133 145 153 165 174 171 176 169 165 168 169 170 166 152 139 136 124 112 95 73 63 68 70 65 59 52 55 51 63 73 76 95 124 123 106
71 68 104 201 176 247 140 254 208 172 159 174 175 175 181 190 199 185 180 186 188 178 167 168 173 174 169 161 152 149 138 124 95 93 82 79 83 86 88 70 62 59 78 89 75 94 115 124 115
33 147 208 294 210 162 195 258 184 176 177 190 199 195 199 202 210 206 196 198 195 189 182 170 174 174 171 164 158 151 136 122 115 126 124 115 104 100 75 77 68 58 88 104 83 82 120 125 107
173 163 243 228 227 198 229 261 182 198 196 205 208 203 211 211 217 204 195 200 203 199 195 186 180 179 174 165 157 144 133 118 143 164 160 154 137 133 94 88 71 65 106 108 97 94 122 132 120
140 150 182 258 290 178 248 268 247 214 221 229 213 212 216 223 198 205 203 200 198 196 193 189 183 180 179 168 161 156 152 159 188 184 166 145 133 140 121 105 96 70 89 98 102 101 116 131 130
117 102 260 330 344 186 279 266 254 193 219 218 212 214 217 209 177 194 201 201 201 200 196 193 190 187 191 184 182 187 168 169 209 187 156 124 126 132 123 113 110 101 98 112 113 113 106 109 150
352 186 224 248 319 320 334 281 256 242 220 210 219 220 215 203 190 190 194 197 198 202 196 191 192 194 200 204 195 180 165 164 190 194 171 135 134 121 115 110 115 117 110 96 102 112 124 118 83
286 272 148 154 121 241 82 286 293 268 251 222 227 220 210 202 196 188 186 193 199 199 196 194 195 193 187 193 207 191 190 182 206 205 184 163 152 142 133 130 128 128 120 114 96 108 129 131 119
235 198 186 194 222 317 231 169 272 292 271 243 231 223 211 197 186 186 188 191 197 194 194 198 199 199 195 196 207 201 196 201 194 188 183 170 158 150 146 141 136 130 124 113 109 111 117 131 133
216 62 26 27 62 341 230 166 278 242 219 280 258 221 206 185 185 186 185 185 191 194 197 200 202 203 204 208 208 211 208 200 184 188 188 178 170 157 150 150 149 137 129 130 124 116 112 108 110
123 70 326 343 335 236 188 188 255 268 260 234 264 247 212 182 177 174 172 179 184 194 196 197 200 201 204 204 212 213 218 217 210 199 193 182 177 166 156 158 149 142 130 136 132 125 119 115 111
198 166 180 245 241 288 90 238 250 243 307 286 304 297 208 181 187 189 187 181 183 193 198 200 200 199 200 202 202 202 205 207 204 199 195 192 185 176 166 166 161 149 142 142 136 130 119 117 113
211 186 183 345 116 303 239 282 290 304 271 254 269 291 228 202 193 189 178 181 186 195 203 204 204 204 202 200 199 197 200 200 196 198 200 196 186 176 171 167 166 157 153 151 146 137 129 126 121
166 163 153 7 261 255 267 262 238 281 303 263 249 247 238 198 187 173 181 186 193 203 207 207 211 210 207 203 202 199 192 193 196 200 199 194 186 183 176 168 166 160 155 157 151 142 138 134 127
158 208 208 177 185 217 282 260 222 252 227 249 257 235 213 206 193 184 190 195 202 206 206 206 209 210 208 206 203 200 197 196 195 197 195 192 187 185 180 172 166 162 158 164 157 150 144 143 140
239 222 190 194 226 233 225 260 258 248 243 214 255 252 230 196 194 199 196 196 201 206 206 207 209 209 211 209 206 204 202 197 195 193 192 189 186 186 186 177 172 166 166 168 164 157 155 153 150